Location: Newark
(52.3500°N, 175.9667°E)
Time: 22:25:06
(UTC+00:00)

Transit 4A - Pass Details

Date: 25 April 2021
Orbit: 871 x 974 km, 66.8° (Epoch: 16 May)

Event Time Altitude Azimuth Distance (km) Brightness Sun altitude
Rises 10:11:45 0° 192° (SSW) 3,619 - -19.2°
Reaches altitude 10° 10:14:25 10° 186° (S) 2,664 - -19.4°
Exits shadow 10:18:28 35° 156° (SSE) 1,464 8.4 -19.7°
Maximum altitude 10:20:14 44° 117° (ESE) 1,275 8.2 -19.9°
Drops below altitude 10° 10:25:55 10° 48° (NE) 2,611 10.4 -20.3°
Sets 10:28:30 0° 42° (NE) 3,541 11.2 -20.5°
